This is the latest recevied weather packets stored in our database for station/object G4KVI. If no packets are shown the sender has not sent any weather packets the latest 10 day(s).
| Time | Temp. | Humidity | Pressure | Rain* | Wind** | Luminosity | Snow |
|---|---|---|---|---|---|---|---|
| 1787408705 | 19.44° C | 42% | 1025.6 hPa | 0 mm | - | 164 W/m² | - |
| 1787408405 | 19.44° C | 43% | 1025.7 hPa | 0 mm | - | 141 W/m² | - |
| 1787408105 | 19.44° C | 44% | 1025.8 hPa | 0 mm | - | 126 W/m² | - |
| 1787407805 | 20° C | 44% | 1025.7 hPa | 0 mm | - | 126 W/m² | - |
| 1787407505 | 20.56° C | 44% | 1025.8 hPa | 0 mm | - | 133 W/m² | - |
| 1787407205 | 20.56° C | 43% | 1025.6 hPa | 0 mm | - | 526 W/m² | - |
| 1787406905 | 20.56° C | 44% | 1025.5 hPa | 0 mm | - | 224 W/m² | - |
| 1787406605 | 20° C | 44% | 1025.7 hPa | 0 mm | - | 716 W/m² | - |
| 1787406305 | 20° C | 44% | 1025.6 hPa | 0 mm | - | 253 W/m² | - |
| 1787406005 | 20.56° C | 44% | 1025.9 hPa | 0 mm | - | 232 W/m² | - |
| 1787405705 | 20° C | 45% | 1025.5 hPa | 0 mm | - | 770 W/m² | - |
| 1787405404 | 19.44° C | 46% | 1025.9 hPa | 0 mm | - | 781 W/m² | - |
| 1787405105 | 19.44° C | 45% | 1025.7 hPa | 0 mm | - | 157 W/m² | - |
| 1787404804 | 20° C | 44% | 1025.9 hPa | 0 mm | - | 167 W/m² | - |
| 1787404504 | 19.44° C | 45% | 1025.8 hPa | 0 mm | - | 186 W/m² | - |
| 1787404204 | 19.44° C | 46% | 1025.8 hPa | 0 mm | - | 219 W/m² | - |
| 1787403904 | 20.56° C | 43% | 1025.7 hPa | 0 mm | - | 328 W/m² | - |
| 1787403604 | 20.56° C | 44% | 1025.8 hPa | 0 mm | - | 758 W/m² | - |
| 1787403304 | 20.56° C | 44% | 1025.8 hPa | 0 mm | - | 756 W/m² | - |
| 1787403004 | 20.56° C | 41% | 1025.6 hPa | 0 mm | - | 758 W/m² | - |
| 1787402704 | 19.44° C | 45% | 1025.8 hPa | 0 mm | - | 762 W/m² | - |
| 1787402404 | 19.44° C | 46% | 1025.8 hPa | 0 mm | - | 772 W/m² | - |
| 1787402104 | 19.44° C | 45% | 1025.9 hPa | 0 mm | - | 220 W/m² | - |
| 1787401804 | 19.44° C | 46% | 1025.8 hPa | 0 mm | - | 527 W/m² | - |
| 1787401504 | 19.44° C | 46% | 1026.1 hPa | 0 mm | - | 176 W/m² | - |
* Rain latest hour (hover to see other rain measurements)
** Current wind speed in m/s (hover to see current wind gust speed)